Theta_e
318 322 325 328 344 345 349 346 343 342 339 335 334 336 336 337 337 336 339 345 343 350 350 348 332 332 331 325 322 321 321 321 322 324 326 327 328 327 326 327 328 338 337 336 339 341 340 339 339
316 321 320 331 345 348 347 341 339 337 336 335 334 334 334 339 340 343 343 348 348 350 349 347 331 332 328 324 321 321 321 321 322 322 323 323 325 325 326 326 326 334 334 334 336 339 339 339 338
319 318 322 335 344 349 345 338 337 335 333 334 334 334 333 337 341 339 341 348 349 349 348 345 332 332 327 323 322 322 321 321 322 324 324 326 327 329 329 328 329 331 332 333 334 334 334 335 337
319 319 318 336 340 342 340 337 335 334 334 333 334 334 334 335 337 338 346 348 346 347 346 338 333 331 328 324 323 323 323 322 322 324 326 327 329 330 330 330 330 330 330 330 331 332 333 333 333
315 318 325 326 325 339 338 336 335 335 334 334 331 334 333 334 338 342 346 344 343 346 346 344 332 329 327 324 324 324 324 325 324 324 325 326 327 327 327 327 327 327 326 326 326 325 325 324 324
321 318 328 330 335 341 338 337 336 335 334 333 330 330 332 337 341 343 344 342 342 342 344 344 332 328 326 324 325 325 326 327 327 328 329 329 329 330 330 330 331 331 333 334 335 336 336 336 334
321 323 324 335 341 342 339 336 337 334 330 327 328 324 332 337 338 342 342 340 341 341 343 344 342 334 326 326 326 327 328 328 330 331 332 333 334 335 336 337 338 339 340 340 340 340 342 343 342
317 321 328 339 343 340 340 336 333 331 332 331 326 322 323 330 338 340 339 339 340 340 340 342 343 340 341 337 326 327 328 329 330 331 332 335 339 341 341 342 342 343 342 342 344 348 348 347 345
314 322 325 332 342 342 339 335 334 335 331 334 331 328 325 332 337 336 336 337 338 339 340 340 339 340 340 339 336 329 328 328 329 333 335 340 344 343 349 347 347 348 349 349 349 349 348 348 348
319 322 323 323 339 341 339 334 338 334 334 336 336 333 329 333 333 331 331 332 335 335 337 338 339 338 337 338 334 336 335 339 333 336 339 343 346 347 348 347 347 347 347 347 347 346 346 345 346
317 322 326 330 338 339 339 338 338 336 337 337 337 334 329 331 331 329 328 330 331 332 334 335 332 330 337 338 336 339 339 338 336 337 340 342 348 349 346 345 346 344 343 342 342 342 342 342 343
319 329 337 338 338 338 339 340 339 337 334 335 335 334 330 333 332 329 328 329 331 332 331 334 335 329 331 334 339 336 340 338 341 339 341 343 349 346 343 343 341 340 338 337 336 335 335 335 336
319 335 339 337 338 338 339 341 340 337 338 335 334 336 335 333 332 331 329 328 329 330 330 332 335 331 330 331 339 344 342 341 343 345 344 347 345 343 341 339 336 334 332 331 330 330 330 330 331
334 341 340 338 339 337 339 338 338 337 337 335 336 338 338 338 337 335 332 330 331 331 330 331 332 328 332 335 341 344 344 343 344 344 344 343 341 339 337 334 331 330 329 329 328 328 328 328 329
339 342 341 341 340 339 336 340 339 338 337 337 337 338 337 338 338 338 335 333 333 332 333 331 333 331 334 341 343 343 342 342 341 340 340 339 335 330 329 330 328 328 327 325 324 323 322 323 330
341 341 344 341 340 337 338 342 336 338 338 338 337 337 337 337 337 338 338 338 338 340 334 336 341 341 341 342 344 342 341 339 337 336 333 328 324 324 327 326 325 324 324 322 320 319 319 319 327
330 339 343 342 341 340 340 343 338 339 339 339 340 340 340 340 341 340 339 339 341 342 342 344 345 345 343 344 342 341 339 337 333 328 324 322 322 320 320 322 321 322 320 319 318 319 320 319 321
335 339 339 341 343 341 342 343 340 338 340 341 343 343 344 344 344 345 344 343 343 344 346 348 347 345 345 344 340 336 331 327 324 323 323 320 318 311 317 319 317 320 319 318 319 320 320 320 320
323 328 339 335 339 343 343 342 342 340 340 341 344 347 348 348 348 348 347 347 347 347 349 349 346 344 345 341 335 330 328 324 323 320 316 313 311 314 315 319 319 320 319 320 320 320 320 319 320
318 321 331 321 320 343 342 345 341 339 341 341 343 347 349 351 351 349 348 349 349 349 350 349 347 347 343 338 333 329 324 322 321 318 313 313 313 314 314 318 318 318 319 318 318 320 319 318 319
318 319 320 321 330 335 334 332 335 337 340 342 342 345 348 350 352 351 349 348 349 350 350 349 345 340 338 335 329 322 320 320 319 319 319 318 315 315 317 317 318 318 319 319 319 320 319 319 318
321 318 320 326 330 326 331 326 338 340 341 342 343 345 347 350 350 351 349 348 347 350 350 349 345 340 337 334 329 323 321 319 318 319 320 320 317 318 318 318 319 319 320 319 319 319 319 319 318
323 319 320 326 327 328 336 333 329 338 342 342 343 344 346 347 349 351 349 347 346 344 345 346 342 337 335 334 331 323 322 321 319 320 320 320 318 318 319 319 320 319 322 319 319 319 319 317 317
319 321 322 321 323 325 327 334 325 331 339 338 342 343 344 346 347 349 348 346 341 334 335 340 341 342 338 334 329 324 322 320 320 321 322 321 322 322 320 320 320 320 320 320 320 317 318 316 316
321 326 325 324 325 324 322 330 328 330 326 332 341 344 343 344 345 348 347 342 334 333 337 337 332 334 338 336 329 324 319 318 322 322 322 322 321 322 321 321 321 321 319 318 317 317 317 316 315
323 327 325 325 325 323 321 325 324 326 324 329 333 336 334 336 343 346 344 341 332 333 336 329 328 329 334 334 328 323 320 322 322 322 322 322 322 323 321 321 320 318 317 316 316 317 315 315 314
321 324 322 326 322 323 323 325 326 329 331 333 340 341 337 332 339 345 342 338 336 333 333 331 329 328 331 334 328 323 322 321 321 322 321 322 323 322 320 319 317 314 313 313 315 315 314 313 311
323 321 326 325 328 327 326 327 326 333 333 333 339 342 341 340 342 342 340 338 337 335 333 331 329 328 328 329 327 323 321 320 321 321 322 323 321 320 317 314 313 313 312 313 313 313 311 311 310
323 323 323 327 327 327 328 327 331 333 335 335 335 340 342 343 341 340 339 339 338 335 333 330 327 327 326 326 324 322 323 322 321 322 322 321 319 316 314 312 311 311 311 311 311 310 309 309 308
323 326 329 328 329 326 327 327 325 330 331 334 335 338 342 343 341 339 337 337 338 336 332 329 326 326 324 323 322 322 322 322 322 322 320 319 315 312 312 311 310 310 310 309 309 308 307 307 306
Wind_Speed
3 4 5 3 2 0 3 4 2 2 3 3 9 3 3 3 0 2 6 6 14 17 14 12 13 12 10 10 11 12 12 13 14 14 13 13 12 11 11 10 11 11 10 9 8 8 7 6 5
3 4 2 1 1 4 4 3 10 5 8 12 8 5 2 3 3 9 10 12 18 17 15 13 13 12 10 10 11 12 12 13 14 14 14 14 13 13 12 12 11 10 8 6 5 5 5 5 4
2 2 2 1 2 3 4 8 13 10 3 3 4 5 2 3 4 12 9 18 18 17 15 14 14 12 10 11 12 12 12 13 14 14 14 13 13 12 12 11 10 7 5 2 1 2 4 5 6
3 3 2 1 5 3 1 13 10 9 5 5 7 6 4 3 11 6 19 18 17 16 14 14 14 11 10 11 11 11 12 12 13 12 12 11 10 9 9 8 6 4 2 1 3 5 7 8 9
3 1 2 3 1 1 3 7 3 6 5 6 2 4 4 4 4 15 19 16 17 16 13 12 14 12 11 11 11 11 12 11 11 11 10 9 8 7 6 5 4 3 3 5 6 8 9 10 11
2 1 2 1 2 1 2 3 5 4 5 7 7 8 5 1 10 18 16 15 14 17 14 12 13 12 11 10 10 10 10 10 10 9 8 8 7 6 5 5 5 5 6 7 7 8 9 9 10
1 1 3 3 2 4 5 3 5 7 9 9 9 6 2 5 10 17 14 12 12 13 14 13 11 11 11 9 9 8 8 8 8 7 6 6 5 5 5 5 5 6 6 7 8 10 11 11 10
2 1 4 2 6 4 7 4 7 11 7 9 7 5 7 10 16 14 12 11 12 12 13 12 11 10 10 8 9 8 7 6 5 5 5 5 6 7 7 6 6 6 6 6 7 9 11 12 11
2 1 3 4 7 5 8 6 7 2 12 4 5 4 8 20 19 15 12 11 10 11 13 12 10 8 7 6 6 6 6 5 4 4 5 6 7 7 9 9 9 9 8 7 7 9 11 12 12
2 2 2 2 6 9 13 12 10 7 11 5 5 12 20 20 19 19 17 16 15 14 13 11 10 10 9 6 6 5 4 3 4 3 4 5 7 8 8 8 8 8 7 8 9 10 12 12 11
2 2 2 3 7 6 11 10 4 14 10 7 12 17 20 20 18 17 16 16 16 14 13 13 12 11 8 5 5 3 4 3 3 3 2 2 4 4 5 5 6 7 9 8 10 10 10 11 10
3 2 1 2 3 7 10 9 6 6 3 6 13 19 20 18 19 19 18 16 14 14 13 11 11 11 9 6 3 3 3 3 2 2 2 2 3 3 5 6 7 8 9 10 11 10 11 11 11
4 1 4 4 8 7 7 5 3 9 1 5 18 19 18 17 18 16 13 13 14 14 13 13 12 11 9 7 4 3 4 3 3 3 3 5 5 4 5 6 7 8 9 10 10 11 11 11 11
2 4 5 4 8 6 5 3 2 8 5 12 18 19 17 18 20 16 16 16 17 16 15 14 13 13 9 7 4 3 6 6 7 7 7 7 5 5 6 7 8 10 10 11 11 12 12 12 11
4 6 7 6 3 4 2 4 7 5 10 16 17 16 16 18 20 22 21 19 18 18 16 16 13 13 12 9 6 8 9 10 10 10 9 7 6 7 8 9 10 11 11 12 13 14 14 14 12
3 3 7 3 4 2 5 11 6 8 13 16 17 14 14 15 20 19 18 20 19 17 18 17 13 14 14 12 11 12 13 12 11 11 9 8 10 11 11 11 11 11 12 13 14 16 16 16 12
2 8 5 4 5 4 8 10 0 8 11 14 15 14 14 14 15 17 18 20 18 17 19 19 18 17 17 16 16 16 16 14 12 11 11 12 13 13 13 12 13 13 14 15 16 16 17 18 13
8 5 4 4 8 6 7 13 5 7 11 14 14 14 14 14 15 15 16 14 16 18 18 19 18 20 20 21 21 18 16 15 13 13 13 14 14 15 15 16 16 14 15 16 15 16 16 18 15
7 5 13 5 6 10 18 19 12 7 10 13 15 13 13 14 12 12 13 14 16 18 20 20 21 22 24 25 21 17 14 14 13 14 17 17 17 17 17 15 14 14 16 17 16 13 16 19 20
3 5 7 3 1 10 9 19 12 11 13 17 16 16 15 14 12 14 15 16 19 21 21 20 21 24 24 24 18 17 17 13 14 15 19 18 18 18 17 16 16 17 15 17 18 18 14 15 19
3 6 5 5 4 5 1 10 13 10 13 11 16 16 18 19 18 16 19 18 18 22 22 21 21 22 22 20 21 22 17 16 15 16 15 16 17 17 17 17 16 15 12 12 13 13 13 12 12
8 15 7 11 9 3 9 5 5 8 11 16 17 19 20 21 19 18 22 23 22 20 18 18 19 19 20 25 23 22 19 18 16 16 15 15 15 15 14 13 12 12 10 11 10 10 10 9 10
7 9 14 10 7 4 8 5 3 1 11 17 20 22 22 23 23 22 24 24 17 13 12 10 11 14 20 24 25 25 16 14 18 17 18 16 15 12 10 9 9 10 8 9 8 8 8 6 6
10 6 5 4 4 6 7 8 7 5 10 17 19 20 22 21 22 21 25 20 16 12 16 11 4 14 23 24 27 24 23 22 20 18 17 14 11 10 9 7 7 7 7 6 5 7 6 4 5
7 7 5 7 7 8 2 6 10 7 10 10 13 16 18 17 19 20 20 23 22 24 25 27 5 29 28 27 29 25 26 27 23 20 16 14 11 9 7 6 6 6 6 6 6 6 4 4 4
8 4 5 7 7 9 4 6 6 5 5 7 8 11 10 15 16 19 23 28 29 30 39 37 26 33 31 32 31 28 27 22 19 18 16 13 10 9 8 6 5 6 5 5 5 5 4 4 4
5 5 2 4 1 3 3 4 9 7 8 8 10 10 11 10 12 17 24 31 36 37 41 23 26 29 33 33 29 25 25 23 20 18 16 12 10 9 8 6 5 4 4 3 4 4 4 3 4
2 8 3 1 5 9 4 3 5 5 10 9 9 9 6 3 10 15 22 30 35 33 31 23 22 26 28 27 27 26 25 24 22 19 15 13 12 11 8 6 5 4 4 3 4 4 5 4 5
4 3 3 1 2 10 12 8 7 11 9 8 9 9 7 7 11 14 19 26 30 30 28 24 24 28 25 24 24 23 22 21 21 16 15 14 12 10 9 7 5 4 4 5 6 6 5 5 6
2 4 7 7 6 2 4 8 5 9 8 9 11 8 9 10 11 13 18 23 29 29 26 23 25 24 23 22 22 23 22 21 20 17 16 15 14 11 7 7 6 6 6 6 7 6 6 6 7
Wind_Direction
125 140 145 163 203 60 66 54 302 45 101 66 139 188 172 49 52 31 130 158 148 146 146 144 141 136 126 117 113 109 107 106 106 105 105 105 105 103 101 104 114 119 110 98 87 78 81 74 63
145 145 170 221 19 103 77 31 59 63 108 109 96 107 90 83 78 117 136 146 146 146 148 147 147 143 136 127 117 111 109 108 107 105 104 102 101 100 100 101 113 123 118 107 86 65 50 36 22
146 163 250 94 90 84 100 131 116 118 81 116 112 49 54 70 110 138 143 147 148 147 149 152 152 150 141 130 122 117 113 112 111 109 107 105 102 99 97 100 110 122 124 113 66 355 340 335 334
184 166 117 94 95 107 113 149 132 119 99 79 105 82 93 345 141 159 148 151 149 149 151 157 155 151 143 133 124 117 113 112 112 111 108 105 103 99 96 97 100 105 106 330 315 314 314 313 314
42 168 74 77 71 33 101 150 143 117 99 112 116 110 80 111 123 148 152 156 155 152 154 158 158 154 147 139 130 123 117 112 109 106 102 97 91 87 80 72 61 40 6 345 335 330 326 323 318
140 281 129 251 148 88 132 156 133 88 120 125 102 110 127 160 149 155 156 157 158 156 159 162 160 156 151 144 135 127 120 113 107 100 92 85 77 63 53 38 27 16 7 359 350 343 337 334 330
84 112 116 153 126 169 144 155 166 134 133 109 120 123 104 166 161 157 157 155 156 160 163 164 164 163 157 151 140 130 122 114 108 99 89 77 57 36 19 11 4 355 348 343 343 341 338 334 329
99 107 143 199 180 169 147 135 132 141 95 119 140 142 155 164 155 155 156 158 161 169 171 172 169 168 166 159 151 142 131 124 116 100 79 51 35 23 13 17 7 3 356 354 354 360 4 2 355
160 179 199 184 174 153 157 137 148 88 133 114 150 126 129 147 153 155 161 170 177 180 178 178 175 175 170 164 162 147 143 138 122 93 64 41 26 41 50 55 54 47 37 29 20 360 351 349 353
201 219 212 193 196 181 163 149 147 143 145 128 130 97 132 149 163 170 176 182 186 185 191 187 183 179 171 168 168 163 162 158 141 105 81 61 55 75 69 51 34 22 8 354 345 337 335 342 339
155 252 353 207 196 179 152 134 137 149 185 190 178 148 153 163 173 182 185 188 192 188 193 193 188 185 175 169 169 169 179 166 159 143 120 82 89 74 52 35 22 14 2 1 352 350 348 343 339
244 283 284 118 150 149 156 131 154 174 202 185 164 158 159 172 180 189 190 193 196 201 197 194 193 188 180 176 165 197 199 204 194 208 195 146 106 85 53 39 25 19 11 6 4 359 353 350 347
227 81 55 86 119 88 121 135 133 185 136 156 147 162 170 180 184 192 198 197 201 207 204 199 198 193 188 193 201 234 221 202 203 180 158 133 120 94 57 42 35 29 23 21 16 10 5 1 359
76 108 118 72 99 79 141 116 191 187 154 152 164 175 177 186 188 187 198 204 204 206 205 199 200 199 194 205 223 227 175 159 139 125 125 125 105 80 64 54 50 45 38 32 26 20 18 16 12
120 123 125 59 91 96 119 209 219 135 156 170 184 179 185 195 191 198 199 207 205 209 202 200 196 195 193 186 164 142 129 130 123 118 117 112 94 82 82 71 58 50 44 39 31 25 21 19 26
147 150 163 122 155 86 212 232 202 162 164 177 188 194 196 198 206 208 207 210 210 208 200 193 185 184 183 177 161 146 139 130 122 119 116 104 99 93 86 74 64 59 51 42 33 27 24 22 26
44 170 182 144 180 147 209 242 73 182 185 184 193 194 199 202 215 219 220 218 213 207 194 184 183 173 170 162 157 149 144 136 133 125 118 114 105 99 93 85 77 68 57 47 39 32 28 20 18
168 153 187 215 184 207 219 237 168 189 209 201 198 198 201 207 211 212 219 214 205 199 189 178 169 167 162 162 151 144 139 131 126 122 118 115 107 101 98 88 78 67 60 51 45 42 35 27 12
127 144 191 207 180 197 224 244 222 211 217 218 206 203 206 208 200 197 191 189 183 180 175 170 166 166 164 163 151 142 136 133 128 126 124 117 109 101 96 89 81 73 65 56 47 42 35 29 22
121 134 192 293 115 212 235 251 252 231 230 220 216 209 207 201 196 191 184 176 179 173 174 173 172 174 174 167 162 152 143 141 137 130 124 118 111 104 99 92 82 76 63 56 49 42 33 32 30
213 203 182 239 104 182 97 264 248 227 217 219 220 219 213 206 199 192 189 185 181 179 177 175 173 175 174 168 158 148 142 136 136 134 126 122 113 107 100 92 84 73 68 59 51 44 41 26 28
204 216 191 174 175 208 193 259 235 233 225 221 221 215 215 211 210 200 191 189 191 184 174 174 170 166 170 173 169 165 161 157 156 147 141 128 122 114 105 93 79 67 62 49 43 38 37 25 21
222 180 185 186 182 178 187 245 224 215 220 228 226 222 220 214 207 203 198 197 184 175 160 152 150 166 179 190 183 175 168 167 152 149 142 138 132 123 110 93 76 62 53 36 28 24 26 30 27
145 118 105 108 167 228 216 237 236 204 221 234 236 233 229 221 216 206 200 184 164 134 121 128 229 202 200 198 197 186 174 163 160 158 152 149 143 133 126 107 80 58 45 31 19 11 13 36 44
186 177 191 220 219 250 146 214 254 246 239 255 259 244 244 231 221 206 189 176 150 142 134 141 229 257 205 203 202 193 182 176 169 163 161 156 150 143 134 109 82 55 32 28 23 21 35 42 31
191 213 199 225 232 252 156 218 236 275 250 260 279 279 263 249 223 204 190 173 160 164 166 167 195 220 198 195 198 191 187 178 171 172 168 162 153 144 132 109 70 56 36 20 36 40 51 31 14
152 199 77 122 78 241 207 240 271 228 244 257 268 285 280 256 215 197 191 183 175 178 184 201 196 197 193 193 193 187 186 180 176 176 169 157 145 131 120 100 82 59 42 28 69 64 44 25 21
193 138 153 196 230 249 211 238 240 204 222 219 250 255 279 222 184 193 195 194 187 186 194 205 194 195 191 187 187 188 188 183 179 174 165 155 150 140 125 107 92 76 51 44 64 64 42 27 15
153 188 72 124 252 255 262 252 209 213 213 232 243 249 252 210 199 200 206 205 194 192 196 194 192 191 186 183 181 182 179 176 176 170 163 156 147 136 133 119 94 71 67 61 63 60 33 20 12
202 218 189 242 226 235 282 252 191 220 212 208 240 240 234 219 203 203 208 212 201 200 195 187 186 182 180 179 178 172 165 165 165 163 158 153 148 140 127 110 96 86 77 65 59 50 29 15 9